User: anonymous   Login
Location: Noordwijk
(52.2400°N, 4.4500°E)
Time: 09:19:35
(UTC+00:00)
Language:

COSMOS 2535 DEB - Orbit

View from above orbital plane
View from above orbital plane
View from above satellite
View from above satellite

Ground track
Ground track

The orbit data is extracted from the following two-line orbital elements,

1 44712U 19039P   24112.27115412  .00008188  00000-0  10286-2 0  9997
2 44712  97.6877 127.5731 0047375  83.7959 276.8648 14.81562210245582
Epoch (UTC): 21 April 2024 06:30:27
Eccentricity: 0.0047375
inclination: 97.6877°
perigee height: 591 km
apogee height: 657 km
right ascension of ascending node: 127.5731°
argument of perigee: 83.7959°
revolutions per day: 14.81562210
mean anomaly at epoch: 276.8648°
orbit number at epoch: 24558

The dashed part of the orbit path shows where the satellite is in the earth's shadow,  

DLR